Regional Weather Roundup
Issued by NWS Memphis, TN

Home | Current Version | Previous Version | Text Only | Print | Product List | Glossary On
Versions: 1 2 3 4 5 6 7 8 9 10 11 12 13 14 15 16 17 18 19 20 21 22 23 24 25 26 27 28 29 30 31 32 33 34 35 36 37 38 39 40 41 42 43 44 45 46 47 48 49 50
000
ASUS44 KMEG 201410
RWRMEG
MEMPHIS CWA HOURLY WEATHER ROUNDUP
NATIONAL WEATHER SERVICE MEMPHIS TN
800 AM CST MON FEB 20 2017

...WEST TENNESSEE...

CITY           SKY/WX    TMP DP  RH WIND       PRES   REMARKS
MEMPHIS INTL   PTSUNNY   62  51  67 S10       30.08R
NWS MEMPHIS      N/A     57 N/A N/A MISG        N/A
JACKSON        MOSUNNY   55  51  86 E5        30.11R
BOLIVAR        SUNNY     55  50  82 SE6       30.10S
UNION CITY     SUNNY     55  55 100 CALM      30.10S
PARIS          SUNNY     54  48  82 SE9       30.13R
HUNTINGDON     SUNNY     55  52  88 CALM      30.12R


...EASTERN ARKANSAS...

CITY           SKY/WX    TMP DP  RH WIND       PRES   REMARKS
JONESBORO      MOSUNNY   57  52  83 E5        30.07R
WEST MEMPHIS   MOSUNNY   60  54  80 SE8       30.06R
BATESVILLE     CLOUDY    61  52  72 SE6       30.05R
NEWPORT        CLOUDY    58  53  84 MISG      30.06R
WALNUT RIDGE   CLOUDY    57  50  77 SE8       30.06R
BLYTHEVILLE    CLOUDY    59  51  75 SE6       30.09R
SEARCY         PTSUNNY   57  54  89 S5        30.07R
STUTTGART        N/A     59  48  67 SE7       30.08R VSB 1/4
PINE BLUFF     PTSUNNY   58  55  90 SE10      30.05R
MONTICELLO     MOSUNNY   59  53  80 SE6       30.07R


...NORTH MISSISSIPPI...

CITY           SKY/WX    TMP DP  RH WIND       PRES   REMARKS
TUPELO         SUNNY     54  49  83 E5        30.11R
OXFORD         SUNNY     57  48  72 SE8       30.11R
BATESVILLE     MOSUNNY   58  53  84 CALM      30.09R
OLIVE BRANCH   PTSUNNY  N/A N/A N/A SE9       30.08R
TUNICA         MOSUNNY   61  52  72 CALM      30.09R
CORINTH        SUNNY     50  48  93 SE5       30.11S
GREENWOOD      PTSUNNY   61  51  70 E5        30.08R
COLUMBUS       SUNNY     52  50  93 CALM      30.11R
GOLDEN TRIANGL SUNNY     57  46  67 SE10      30.08R


...SOUTHEAST MISSOURI...

CITY           SKY/WX    TMP DP  RH WIND       PRES   REMARKS
KENNETT        CLOUDY    55  52  88 E3        30.08R FOG
WEST PLAINS    CLOUDY    59  52  77 SE9       30.03S
POPLAR BLUFF   CLOUDY    52  51  97 E5        30.08R
CAPE GIRARDEAU PTSUNNY   54  48  80 CALM      30.10R


...NORTHWEST ALABAMA...

CITY           SKY/WX    TMP DP  RH WIND       PRES   REMARKS
MUSCLE SHOALS  MOSUNNY   54  50  86 E8        30.16R


...MIDDLE TENNESSEE...

CITY           SKY/WX    TMP DP  RH WIND       PRES   REMARKS
NASHVILLE      CLOUDY    50  47  89 CALM      30.18S FOG
CLARKSVILLE    MOSUNNY   51  47  86 SE6       30.15S FOG
COLUMBIA       SUNNY    N/A N/A N/A CALM      30.15S


...WESTERN KENTUCKY...

CITY           SKY/WX    TMP DP  RH WIND       PRES   REMARKS
PADUCAH        CLOUDY    52  49  89 SE7       30.12R FOG
FORT CAMPBELL  CLOUDY    51  51 100 E6        30.15S


...CENTRAL ARKANSAS...

CITY           SKY/WX    TMP DP  RH WIND       PRES   REMARKS
LITTLE ROCK    CLOUDY    57  57 100 CALM      30.04R


SKY/WX REPORTED AS FAIR MEANS FEW OR NO CLOUDS BELOW
12 THOUSAND FEET.




USA.gov is the U.S. government's official web portal to all federal, state and local government web resources and services.